Woodinville, Washington, United States (98072)
Lat: 47.75N, Lon: 122.16W
Wx Zone: WAZ505
Local Info
Past Weather Observations for Sunday, January 25, 2015

NOTE: This archive is for the closest National Weather Service station to Woodinville. Information may differ from the station used for current weather conditions.

Click here for Long-term Archive

Time Weather Temperature Dewpoint Humidity Pressure Winds Precip Visibility
23:53
Obscured
Fog
46°F / 8°C 45°F / 7°C 93% 29.98 in
(1015 mb)
Calm - M1/4SM
22:53
Obscured
Fog
46°F / 8°C 46°F / 8°C 100% 30.01 in
(1016 mb)
N 3.5 mph
(N 6 kph)
- M1/4SM
21:53
Obscured
Fog
48°F / 9°C 46°F / 8°C 94% 30.01 in
(1016 mb)
N 4.6 mph
(N 7 kph)
- M1/4SM
21:10
Obscured
Fog
48°F / 9°C 46°F / 8°C 94% 30.04 in
(1017 mb)
N 5.8 mph
(N 9 kph)
- 1/4SM
21:01
Obscured
Fog
48°F / 9°C 46°F / 8°C 94% 30.04 in
(1017 mb)
N 4.6 mph
(N 7 kph)
- 1/2SM
20:53
Overcast
Fog And Mist
48°F / 9°C 46°F / 8°C 94% 30.04 in
(1017 mb)
NNE 4.6 mph
(NNE 7 kph)
- 1SM
20:49
Overcast
Fog And Mist
48°F / 9°C 46°F / 8°C 94% 30.04 in
(1017 mb)
NNE 5.8 mph
(NNE 9 kph)
- 1 1/2SM
19:53
Overcast
Fog And Mist
48°F / 9°C 46°F / 8°C 94% 30.04 in
(1017 mb)
N 5.8 mph
(N 9 kph)
- 4SM
19:47
Overcast
Fog And Mist
48°F / 9°C 46°F / 8°C 94% 30.04 in
(1017 mb)
N 5.8 mph
(N 9 kph)
- 5SM
19:26
Partly Cloudy
48°F / 9°C 46°F / 8°C 94% 30.04 in
(1017 mb)
N 4.6 mph
(N 7 kph)
- 7SM
18:53
Clear
50°F / 10°C 46°F / 8°C 88% 30.04 in
(1017 mb)
NNE 5.8 mph
(NNE 9 kph)
- 10SM
17:53
Clear
50°F / 10°C 48°F / 9°C 94% 30.06 in
(1018 mb)
N 3.5 mph
(N 6 kph)
- 10SM
16:53
Clear
54°F / 12°C 48°F / 9°C 82% 30.06 in
(1018 mb)
N 4.6 mph
(N 7 kph)
- 10SM
15:53
Clear
54°F / 12°C 48°F / 9°C 82% 30.09 in
(1019 mb)
N 4.6 mph
(N 7 kph)
- 10SM
14:53
Clear
57°F / 14°C 46°F / 8°C 67% 30.09 in
(1019 mb)
N 6.9 mph
(N 11 kph)
- 10SM
13:53
Clear
63°F / 17°C 43°F / 6°C 49% 30.09 in
(1019 mb)
ESE 3.5 mph
(ESE 6 kph)
- 10SM
12:53
Clear
61°F / 16°C 45°F / 7°C 55% 30.12 in
(1020 mb)
ESE 4.6 mph
(ESE 7 kph)
- 10SM
11:53
Clear
57°F / 14°C 48°F / 9°C 72% 30.15 in
(1021 mb)
ESE 3.5 mph
(ESE 6 kph)
- 10SM
10:53
Clear
54°F / 12°C 48°F / 9°C 82% 30.15 in
(1021 mb)
SSE 5.8 mph
(SSE 9 kph)
- 10SM
09:53
Partly Cloudy
52°F / 11°C 46°F / 8°C 82% 30.18 in
(1022 mb)
Calm - 10SM
09:36
Partly Cloudy
52°F / 11°C 46°F / 8°C 82% 30.18 in
(1022 mb)
Calm - 10SM
08:53
Clear
50°F / 10°C 48°F / 9°C 94% 30.18 in
(1022 mb)
ESE 6.9 mph
(ESE 11 kph)
- 10SM
07:53
Partly Cloudy
52°F / 11°C 48°F / 9°C 88% 30.18 in
(1022 mb)
Variable 3.5 mph
(Variable 6 kph)
- 10SM
07:19
Overcast
54°F / 12°C 50°F / 10°C 88% 30.21 in
(1023 mb)
S 3.5 mph
(S 6 kph)
- 10SM
06:53
Overcast
54°F / 12°C 52°F / 11°C 94% 30.21 in
(1023 mb)
SSE 6.9 mph
(SSE 11 kph)
- 10SM
06:37
Overcast
54°F / 12°C 52°F / 11°C 94% 30.21 in
(1023 mb)
SSE 4.6 mph
(SSE 7 kph)
- 10SM
06:29
Overcast
54°F / 12°C 52°F / 11°C 94% 30.21 in
(1023 mb)
SSE 3.5 mph
(SSE 6 kph)
- 10SM
06:13
Overcast
54°F / 12°C 52°F / 11°C 94% 30.21 in
(1023 mb)
SSE 6.9 mph
(SSE 11 kph)
- 9SM
05:53
Overcast
54°F / 12°C 52°F / 11°C 94% 30.21 in
(1023 mb)
SSE 9.2 mph
(SSE 15 kph)
0.01 in
(0.25 mm)
9SM
05:23
Overcast
54°F / 12°C 52°F / 11°C 94% 30.21 in
(1023 mb)
SSE 5.8 mph
(SSE 9 kph)
0.01 in
(0.25 mm)
8SM
04:53
Overcast
Fog And Mist
54°F / 12°C 52°F / 11°C 94% 30.21 in
(1023 mb)
S 6.9 mph
(S 11 kph)
0.00 in
(0.00 mm)
4SM
04:28
Overcast
Light Rain
54°F / 12°C 52°F / 11°C 94% 30.21 in
(1023 mb)
S 6.9 mph
(S 11 kph)
0.00 in
(0.00 mm)
5SM
04:02
Overcast
54°F / 12°C 52°F / 11°C 94% 30.21 in
(1023 mb)
S 8.1 mph
(S 13 kph)
- 10SM
03:53
Overcast
54°F / 12°C 52°F / 11°C 94% 30.21 in
(1023 mb)
SSE 11.5 mph
(SSE 19 kph)
- 10SM
03:38
Overcast
54°F / 12°C 52°F / 11°C 94% 30.21 in
(1023 mb)
S 8.1 mph
(S 13 kph)
- 10SM
03:12
Overcast
54°F / 12°C 52°F / 11°C 94% 30.21 in
(1023 mb)
S 9.2 mph
(S 15 kph)
- 10SM
02:53
Overcast
54°F / 12°C 52°F / 11°C 94% 30.21 in
(1023 mb)
S 8.1 mph
(S 13 kph)
- 10SM
02:37
Overcast
54°F / 12°C 52°F / 11°C 94% 30.21 in
(1023 mb)
SSE 10.4 mph
(SSE 17 kph)
- 10SM
01:53
Overcast
54°F / 12°C 52°F / 11°C 94% 30.21 in
(1023 mb)
S 6.9 mph
(S 11 kph)
- 10SM
01:30
Overcast
54°F / 12°C 52°F / 11°C 94% 30.21 in
(1023 mb)
S 9.2 mph
(S 15 kph)
- 10SM
01:19
Overcast
55°F / 13°C 52°F / 11°C 88% 30.21 in
(1023 mb)
S 10.4 mph
(S 17 kph)
- 10SM
00:53
Overcast
54°F / 12°C 52°F / 11°C 94% 30.21 in
(1023 mb)
S 8.1 mph
(S 13 kph)
- 10SM
Time Weather Temperature Dewpoint Humidity Pressure Winds Precip Visibility


Weather for websites

WeatherForYou.com, LLC is not responsible for any damages or problems caused by this service. Current weather conditions are obtained from the closest station including government and personal stations which may have varying degrees of accuracy. Weather forecasts are derived from the NOAA NDFD. Like all things, this site belongs to Jesus Christ... He just trusts me to maintain it. If you have any questions or comments email webmaster@weatherforyou.com

Copyright © 2015, WeatherForYou.com LLC. All rights reserved.